When you browse on this site, cookies collect data to enhance your experience and personalize the content and advertising you see.
Visit our Privacy Policy to learn more. By continuing to use the site, you agree to this use of cookies and data.
  • In Österreich
  • Länderverzeichnis
  • Für 7 Tage
  • Wassertemperatur
  • Satellitenkarten
  • Wetterkarte
  • News
  • Widgets
  • user-avatar
    Anmelden

    Stündliche Wetter Silna

    Heute, 16 Februar, Samstag

    Zeit Temperatur Niederschläge Wind Luftdruck Luftfeuchtigkeit
    00:00 +4°C° 0 mm 1 m/S 766 mmHg 80%
    01:00 +4°C° 0 mm 1 m/S 765 mmHg 78%
    02:00 +4°C° 0 mm 1 m/S 765 mmHg 78%
    03:00 +4°C° 0 mm 1 m/S 765 mmHg 78%
    04:00 +3°C° 0 mm 2 m/S 764 mmHg 77%
    05:00 +2°C° 0 mm 2 m/S 764 mmHg 77%
    06:00 +2°C° 0 mm 2 m/S 764 mmHg 77%
    07:00 +2°C° 0 mm 2 m/S 764 mmHg 75%
    08:00 +2°C° 0 mm 3 m/S 764 mmHg 70%
    09:00 +4°C° 0 mm 3 m/S 763 mmHg 65%
    10:00 +7°C° 0 mm 3 m/S 763 mmHg 59%
    11:00 +8°C° 0 mm 3 m/S 763 mmHg 55%
    12:00 +10°C° 0 mm 4 m/S 763 mmHg 51%
    13:00 +12°C° 0 mm 3 m/S 762 mmHg 46%
    14:00 +12°C° 0 mm 3 m/S 762 mmHg 48%
    15:00 +12°C° 0 mm 3 m/S 762 mmHg 50%
    16:00 +11°C° 0 mm 3 m/S 761 mmHg 51%
    17:00 +10°C° 0 mm 3 m/S 761 mmHg 57%
    18:00 +9°C° 0 mm 3 m/S 761 mmHg 62%
    19:00 +8°C° 0 mm 3 m/S 761 mmHg 68%
    20:00 +7°C° 0 mm 3 m/S 761 mmHg 70%
    21:00 +7°C° 0 mm 3 m/S 761 mmHg 72%
    22:00 +5°C° 0 mm 3 m/S 761 mmHg 75%
    23:00 +5°C° 0 mm 3 m/S 761 mmHg 77%

    Morgen, 17 Februar, Sonntag

    Zeit Temperatur Niederschläge Wind Luftdruck Luftfeuchtigkeit
    00:00 +4°C° 0 mm 3 m/S 761 mmHg 80%
    01:00 +4°C° 0 mm 3 m/S 761 mmHg 82%
    02:00 +3°C° 0 mm 3 m/S 761 mmHg 84%
    03:00 +3°C° 0 mm 3 m/S 761 mmHg 86%
    04:00 +2°C° 0 mm 3 m/S 761 mmHg 87%
    05:00 +3°C° 0 mm 2 m/S 761 mmHg 89%
    06:00 +3°C° 0 mm 2 m/S 761 mmHg 90%
    07:00 +2°C° 0 mm 2 m/S 761 mmHg 91%
    08:00 +4°C° 0 mm 2 m/S 762 mmHg 85%
    09:00 +5°C° 0 mm 2 m/S 762 mmHg 80%
    10:00 +5°C° 0 mm 3 m/S 762 mmHg 74%
    11:00 +8°C° 0 mm 2 m/S 762 mmHg 69%
    12:00 +9°C° 0 mm 2 m/S 762 mmHg 65%
    13:00 +10°C° 0 mm 2 m/S 762 mmHg 60%
    14:00 +10°C° 0 mm 2 m/S 761 mmHg 61%
    15:00 +11°C° 0 mm 1 m/S 761 mmHg 62%
    16:00 +11°C° 0 mm 1 m/S 761 mmHg 63%
    17:00 +10°C° 0 mm 1 m/S 761 mmHg 66%
    18:00 +9°C° 0 mm 1 m/S 761 mmHg 70%
    19:00 +8°C° 0 mm 1 m/S 761 mmHg 74%
    20:00 +7°C° 0 mm 1 m/S 761 mmHg 75%
    21:00 +7°C° 0 mm 1 m/S 761 mmHg 77%
    22:00 +6°C° 0 mm 1 m/S 760 mmHg 78%
    23:00 +5°C° 0 mm 2 m/S 760 mmHg 78%

    übermorgen, 18 Februar, Montag

    Zeit Temperatur Niederschläge Wind Luftdruck Luftfeuchtigkeit
    00:00 +4°C° 0 mm 2 m/S 760 mmHg 79%
    01:00 +4°C° 0 mm 2 m/S 760 mmHg 79%
    02:00 +4°C° 0 mm 2 m/S 760 mmHg 79%
    03:00 +3°C° 0 mm 2 m/S 760 mmHg 79%
    04:00 +3°C° 0 mm 2 m/S 759 mmHg 78%
    05:00 +3°C° 0 mm 2 m/S 759 mmHg 79%
    06:00 +3°C° 0 mm 2 m/S 759 mmHg 79%
    07:00 +2°C° 0 mm 2 m/S 759 mmHg 79%
    08:00 +4°C° 0 mm 2 m/S 759 mmHg 74%
    09:00 +5°C° 0 mm 2 m/S 759 mmHg 69%
    10:00 +6°C° 0 mm 2 m/S 759 mmHg 63%
    11:00 +8°C° 0 mm 2 m/S 759 mmHg 59%
    12:00 +9°C° 0 mm 2 m/S 759 mmHg 54%
    13:00 +10°C° 0 mm 3 m/S 758 mmHg 49%
    14:00 +10°C° 0 mm 2 m/S 758 mmHg 50%
    15:00 +10°C° 0 mm 2 m/S 758 mmHg 52%
    16:00 +10°C° 0 mm 2 m/S 757 mmHg 53%
    17:00 +9°C° 0 mm 2 m/S 757 mmHg 57%
    18:00 +8°C° 0 mm 2 m/S 757 mmHg 61%
    19:00 +7°C° 0 mm 2 m/S 757 mmHg 65%
    20:00 +6°C° 0 mm 2 m/S 757 mmHg 67%
    21:00 +6°C° 0 mm 2 m/S 757 mmHg 69%
    22:00 +5°C° 0 mm 2 m/S 757 mmHg 71%
    23:00 +4°C° 0 mm 3 m/S 757 mmHg 72%

    19 Februar, Dienstag

    Zeit Temperatur Niederschläge Wind Luftdruck Luftfeuchtigkeit
    00:00 +3°C° 0 mm 3 m/S 757 mmHg 73%
    01:00 +3°C° 0 mm 3 m/S 756 mmHg 73%
    02:00 +3°C° 0 mm 3 m/S 756 mmHg 76%
    03:00 +3°C° 0 mm 3 m/S 756 mmHg 78%
    04:00 +2°C° 0 mm 3 m/S 755 mmHg 80%
    05:00 +2°C° 0 mm 3 m/S 755 mmHg 80%
    06:00 +2°C° 0 mm 3 m/S 755 mmHg 80%
    07:00 +2°C° 0 mm 3 m/S 755 mmHg 80%
    08:00 +3°C° 0 mm 4 m/S 755 mmHg 73%
    09:00 +5°C° 0 mm 4 m/S 755 mmHg 67%
    10:00 +6°C° 0 mm 5 m/S 755 mmHg 60%
    11:00 +7°C° 0 mm 5 m/S 754 mmHg 57%
    12:00 +9°C° 0 mm 5 m/S 754 mmHg 55%
    13:00 +10°C° 0 mm 6 m/S 754 mmHg 52%
    14:00 +9°C° 0.1 mm 6 m/S 754 mmHg 60%
    15:00 +8°C° 0.1 mm 6 m/S 754 mmHg 67%
    16:00 +8°C° 0.1 mm 6 m/S 754 mmHg 75%
    17:00 +7°C° 0.1 mm 5 m/S 754 mmHg 78%
    18:00 +6°C° 0.1 mm 4 m/S 754 mmHg 81%
    19:00 +5°C° 0.1 mm 4 m/S 755 mmHg 83%
    20:00 +5°C° 0 mm 4 m/S 755 mmHg 84%
    21:00 +5°C° 0 mm 4 m/S 756 mmHg 84%
    22:00 +4°C° 0 mm 4 m/S 756 mmHg 85%
    23:00 +4°C° 0 mm 4 m/S 756 mmHg 85%

    20 Februar, Mittwoch

    Zeit Temperatur Niederschläge Wind Luftdruck Luftfeuchtigkeit
    00:00 +4°C° 0 mm 4 m/S 756 mmHg 86%
    01:00 +2°C° 0 mm 5 m/S 757 mmHg 86%
    02:00 +2°C° 0 mm 5 m/S 757 mmHg 88%
    03:00 +3°C° 0 mm 4 m/S 757 mmHg 89%
    04:00 +1°C° 0 mm 4 m/S 757 mmHg 91%
    05:00 +1°C° 0 mm 4 m/S 757 mmHg 91%
    06:00 +1°C° 0 mm 4 m/S 758 mmHg 91%
    07:00 +1°C° 0 mm 4 m/S 758 mmHg 91%
    08:00 +2°C° 0 mm 5 m/S 758 mmHg 87%
    09:00 +2°C° 0 mm 5 m/S 759 mmHg 83%
    10:00 +3°C° 0 mm 5 m/S 759 mmHg 79%
    11:00 +5°C° 0 mm 5 m/S 759 mmHg 74%
    12:00 +5°C° 0 mm 5 m/S 759 mmHg 70%
    13:00 +6°C° 0 mm 5 m/S 759 mmHg 66%
    14:00 +6°C° 0 mm 5 m/S 759 mmHg 67%
    15:00 +6°C° 0 mm 4 m/S 759 mmHg 68%
    16:00 +6°C° 0 mm 4 m/S 760 mmHg 69%
    17:00 +7°C° 0 mm 3 m/S 760 mmHg 73%
    18:00 +7°C° 0 mm 3 m/S 760 mmHg 76%
    19:00 +5°C° 0 mm 3 m/S 760 mmHg 80%
    20:00 +5°C° 0 mm 3 m/S 760 mmHg 82%
    21:00 +5°C° 0 mm 3 m/S 760 mmHg 84%
    22:00 +4°C° 0 mm 3 m/S 761 mmHg 86%
    23:00 +4°C° 0 mm 3 m/S 761 mmHg 87%

    21 Februar, Donnerstag

    Zeit Temperatur Niederschläge Wind Luftdruck Luftfeuchtigkeit
    00:00 +4°C° 0 mm 3 m/S 761 mmHg 88%
    01:00 +4°C° 0 mm 3 m/S 761 mmHg 89%
    02:00 +4°C° 0.2 mm 3 m/S 761 mmHg 89%
    03:00 +4°C° 0.2 mm 3 m/S 760 mmHg 90%
    04:00 +4°C° 0.2 mm 3 m/S 760 mmHg 90%
    05:00 +4°C° 0.3 mm 3 m/S 760 mmHg 90%
    06:00 +4°C° 0.3 mm 3 m/S 760 mmHg 90%
    07:00 +4°C° 0.3 mm 3 m/S 760 mmHg 89%
    08:00 +4°C° 0 mm 4 m/S 760 mmHg 85%
    09:00 +5°C° 0 mm 4 m/S 760 mmHg 82%
    10:00 +6°C° 0 mm 4 m/S 760 mmHg 78%
    11:00 +6°C° 0 mm 4 m/S 760 mmHg 75%
    12:00 +7°C° 0 mm 5 m/S 760 mmHg 73%
    13:00 +8°C° 0 mm 5 m/S 759 mmHg 70%
    14:00 +7°C° 0.2 mm 5 m/S 759 mmHg 75%
    15:00 +7°C° 0.2 mm 5 m/S 759 mmHg 79%
    16:00 +7°C° 0.2 mm 4 m/S 759 mmHg 83%
    17:00 +6°C° 0.4 mm 4 m/S 759 mmHg 85%
    18:00 +6°C° 0.4 mm 4 m/S 759 mmHg 87%
    19:00 +6°C° 0.4 mm 4 m/S 759 mmHg 88%
    20:00 +6°C° 0.1 mm 4 m/S 759 mmHg 89%
    21:00 +6°C° 0.1 mm 4 m/S 759 mmHg 90%
    22:00 +6°C° 0.1 mm 4 m/S 759 mmHg 91%
    23:00 +6°C° 0.7 mm 4 m/S 759 mmHg 92%
    Mehr zeigen